SCP
0 0 0 0 0 0 0 0 0 0 0 0 0 0 0 0 1 1 2 2 2 3 2 2 2 3 4 5 6 6 7 7 8 9 10 10 11 10 10 9 7 6 6 5
0 0 0 0 0 0 0 0 0 0 0 0 0 0 0 1 1 2 2 3 3 3 3 3 3 3 4 5 6 6 7 8 8 9 10 10 10 9 9 8 7 6 5 5
0 0 0 0 0 0 0 0 0 0 0 0 0 0 0 1 2 3 4 4 4 4 5 4 4 4 4 5 6 6 7 8 9 10 10 9 9 7 7 6 6 5 4 4
0 0 0 0 0 0 0 0 0 0 0 0 0 0 0 1 2 4 5 5 5 5 5 5 5 5 4 5 6 7 8 8 9 10 9 9 7 6 5 4 4 3 3 2
0 0 0 0 0 0 0 0 0 0 0 0 0 0 0 1 3 4 5 5 5 5 5 5 5 5 5 6 7 8 8 8 9 9 9 8 7 5 4 3 3 2 1 1
0 0 0 0 0 0 0 0 0 0 0 0 0 0 0 2 3 4 5 4 4 5 5 4 5 5 6 7 8 8 8 8 8 8 8 7 5 4 3 2 2 1 1 0
0 0 0 0 0 0 0 0 0 0 0 0 0 0 1 2 3 4 4 3 4 4 4 4 4 5 6 7 7 7 7 7 7 6 6 5 4 2 2 1 1 1 1 0
0 0 0 0 0 0 0 0 0 0 0 0 0 1 1 2 3 3 3 3 3 3 3 3 3 4 6 6 7 7 6 5 4 3 3 3 2 1 1 1 1 1 0 0
0 0 0 0 0 0 0 0 0 0 0 0 0 1 1 2 2 2 2 2 2 2 2 2 3 4 4 5 5 4 3 2 2 1 1 1 1 1 1 1 1 0 0 0
0 0 0 0 0 0 0 0 0 0 0 0 0 0 1 2 2 2 2 2 2 1 1 1 1 2 2 2 2 1 1 1 1 1 1 0 0 0 0 0 0 0 0 0
0 0 0 0 0 0 0 0 0 0 0 0 0 0 1 2 2 2 2 2 1 1 1 1 1 1 1 0 0 0 0 0 0 0 0 0 0 0 0 0 0 0 0 0
0 0 0 0 0 0 0 0 0 0 0 0 0 1 1 2 2 2 2 1 1 1 1 1 0 0 0 0 0 0 0 0 0 0 0 0 0 0 0 0 0 0 0 0
0 0 0 0 0 0 0 0 0 0 0 0 0 1 2 2 2 2 1 1 1 1 1 1 0 0 0 0 0 0 0 0 0 0 0 0 0 0 0 0 0 0 0 0
0 0 0 0 0 0 0 0 0 0 0 0 1 1 2 2 2 2 2 1 1 1 0 0 0 0 0 0 0 0 0 0 0 0 0 0 0 0 0 0 0 0 0 0
0 0 0 0 0 0 0 0 0 0 0 1 1 1 2 2 2 2 2 1 1 0 0 0 0 0 0 0 0 0 0 0 0 0 0 0 0 0 0 0 0 0 0 0
0 0 0 0 0 1 1 1 1 1 1 1 2 2 2 2 2 2 1 1 0 0 0 0 0 0 0 0 0 0 0 0 0 0 0 0 0 0 0 0 0 0 0 0
0 0 0 0 0 1 1 1 1 1 2 2 2 2 2 2 2 1 1 1 0 0 0 0 0 0 0 0 0 0 0 0 0 0 0 0 0 0 0 0 0 0 0 0
0 0 0 0 0 0 1 1 1 1 2 2 2 2 1 1 1 1 1 0 0 0 0 0 0 0 0 0 0 0 0 0 0 0 0 0 0 0 0 0 0 0 0 0
0 0 0 0 0 0 0 1 1 1 1 1 1 1 1 1 0 0 0 0 0 0 0 0 0 0 0 0 0 0 0 0 0 0 0 0 0 0 0 0 0 0 0 0
0 0 0 0 0 0 0 0 0 0 1 1 1 1 1 1 0 0 0 0 0 0 0 0 0 0 0 0 0 0 0 0 0 0 0 0 0 0 0 0 0 0 0 0
0 0 0 0 0 0 0 0 0 0 1 0 0 0 0 0 0 0 0 0 0 0 0 0 0 0 0 0 0 0 0 0 0 0 0 0 0 0 0 0 0 0 0 0
0 0 0 0 0 0 0 0 0 0 0 0 0 0 0 0 0 0 0 0 0 0 0 0 0 0 0 0 0 0 0 0 0 0 0 0 0 0 0 0 0 0 0 0
0 0 0 0 0 0 0 0 0 0 0 0 0 0 0 0 0 0 0 0 0 0 0 0 0 0 0 0 0 0 0 0 0 0 0 0 0 0 0 0 0 0 0 0
0 0 0 0 0 0 0 0 0 0 0 0 0 0 0 0 0 0 0 0 0 0 0 0 0 0 0 0 0 0 0 0 0 0 0 0 0 0 0 0 0 0 0 0
0 0 0 0 0 0 0 0 0 0 0 0 0 0 0 0 0 0 0 0 0 0 0 0 0 0 0 0 0 0 0 0 0 0 0 0 0 0 0 0 0 0 0 0
0 0 0 0 0 0 0 0 0 0 0 0 0 0 0 0 0 0 0 0 0 0 0 0 0 0 0 0 0 0 0 0 0 0 0 0 0 0 0 0 0 0 0 0
Wind_Speed
13 13 14 14 15 9 5 8 9 7 2 7 11 11 9 6 6 6 5 4 5 7 7 7 8 10 12 14 14 15 15 15 12 10 10 8 7 6 4 3 3 2 2 2
13 17 15 11 12 12 11 11 10 7 4 7 9 12 10 7 5 3 4 5 5 6 6 4 5 7 10 12 14 14 15 15 15 11 9 7 7 5 4 4 4 4 3 3
19 9 13 12 13 15 15 14 12 9 6 9 10 13 12 8 4 1 3 5 6 7 7 6 3 4 7 9 11 11 13 13 13 12 9 8 6 5 4 5 4 4 4 4
17 9 10 15 15 15 14 13 12 10 11 10 8 11 11 8 6 3 5 7 9 9 8 7 5 2 1 3 5 8 10 11 12 13 12 13 9 7 6 4 4 5 4 4
12 13 14 15 15 16 12 8 10 10 11 11 10 10 9 7 7 3 7 10 11 11 11 9 8 7 6 5 5 7 8 9 10 10 11 10 7 5 5 6 7 6 6 5
11 10 13 13 13 14 9 7 7 9 10 13 13 11 9 4 2 4 8 10 11 11 11 12 12 11 11 10 10 9 10 10 9 8 8 7 9 8 8 7 7 6 5 6
12 12 11 10 12 13 13 11 9 11 11 10 8 10 3 8 6 6 8 10 11 11 12 12 13 13 13 13 12 11 12 11 10 9 8 8 9 8 8 7 7 7 6 6
13 14 15 13 14 13 16 16 11 8 9 8 9 8 9 8 8 9 11 11 12 12 12 13 13 13 13 14 13 13 13 13 12 11 10 9 8 6 6 7 7 7 6 7
8 8 11 13 14 14 15 16 15 10 7 7 8 7 9 9 10 11 11 12 12 12 13 13 14 14 14 14 14 14 14 14 13 13 12 11 10 10 10 10 9 8 8 8
4 5 7 10 11 13 12 12 9 11 10 11 9 11 10 13 11 11 11 11 11 12 12 13 13 13 13 13 13 14 15 14 14 13 11 10 11 11 10 10 10 9 9 9
6 6 7 10 12 14 12 12 11 11 11 10 10 5 8 12 11 12 12 12 12 12 11 11 11 11 12 13 13 14 14 14 13 13 12 12 12 11 11 10 10 10 9 8
4 6 5 6 4 5 12 12 12 10 10 10 10 6 6 9 11 13 13 12 12 12 11 11 11 11 12 13 13 13 13 13 13 12 12 12 12 11 11 11 10 9 9 8
2 5 7 8 8 7 8 7 9 10 8 9 11 6 9 11 12 13 14 13 12 12 11 11 11 11 11 12 12 12 12 12 11 12 12 12 11 11 11 10 9 9 8 8
5 4 6 4 3 6 7 5 6 9 9 8 6 10 12 13 13 13 13 13 12 12 11 11 10 10 10 10 10 11 11 10 11 11 12 11 11 10 10 9 9 8 7 7
4 1 2 4 5 4 4 1 2 4 5 6 2 9 12 12 12 13 13 14 13 12 11 10 10 9 9 9 9 9 9 9 10 11 11 11 10 9 9 8 7 6 6 5
5 0 3 4 4 5 5 5 2 2 3 1 6 8 10 11 11 12 12 13 13 12 11 10 9 9 9 8 9 9 9 9 9 10 10 9 9 8 7 6 5 5 4 4
4 2 4 4 3 5 4 5 5 4 6 2 2 8 11 12 11 10 10 12 12 11 10 9 8 8 8 8 8 9 9 9 9 9 9 8 7 6 5 5 5 4 4 4
5 3 3 3 5 7 7 6 5 6 7 7 10 12 12 13 12 12 11 12 11 10 9 9 8 8 8 9 9 9 9 9 9 8 7 6 6 6 5 5 5 4 4 3
3 4 4 4 5 2 6 3 2 1 5 7 10 12 13 13 13 11 11 11 10 10 9 9 9 9 9 9 8 9 8 8 8 7 6 6 5 5 5 5 5 4 4 4
1 3 5 4 5 2 7 5 3 3 5 6 8 10 9 7 4 6 8 10 10 10 9 9 9 10 9 8 7 8 8 7 7 7 6 6 5 5 5 5 4 4 3 4
2 2 4 5 4 4 7 4 4 3 5 6 6 7 5 5 9 11 10 10 10 10 10 10 10 9 8 6 6 7 7 7 6 6 6 6 5 4 4 3 3 3 3 4
5 3 2 3 3 4 8 3 4 6 5 6 7 8 11 13 14 12 11 10 10 10 10 10 9 8 6 5 6 6 7 6 5 5 5 5 3 3 3 2 2 2 3 3
3 5 4 5 5 6 6 7 5 4 6 6 7 9 12 13 13 12 11 10 10 10 9 8 8 8 6 5 5 6 5 4 4 4 4 4 2 2 2 2 2 2 3 3
2 1 2 1 5 5 5 6 6 6 6 7 7 9 11 13 13 13 11 10 10 10 9 7 7 7 7 6 6 5 4 3 3 4 3 2 1 1 1 2 3 3 4 5
2 2 3 1 5 5 4 5 6 6 7 8 9 10 11 14 14 13 11 10 9 9 8 7 7 7 7 6 6 5 5 3 3 2 1 1 1 2 2 1 3 4 6 6
3 4 4 2 3 1 6 6 6 6 7 9 11 11 12 13 14 13 11 10 9 9 8 7 7 7 7 6 6 5 3 2 2 1 2 2 2 2 2 2 2 3 2 4
Wind_Direction
190 207 210 206 215 243 230 224 215 213 190 252 241 248 254 254 264 263 263 268 265 258 259 249 231 221 213 206 202 200 197 188 184 182 180 177 174 163 151 134 122 128 129 129
192 221 220 217 214 225 228 230 227 223 213 264 259 257 255 252 252 299 322 317 312 307 304 287 249 221 216 211 206 201 197 190 186 183 177 172 157 148 137 130 125 130 132 138
210 216 207 207 205 214 224 233 238 243 239 238 255 246 228 219 200 89 17 7 356 346 336 330 306 244 218 211 206 203 197 188 183 170 159 148 143 141 146 151 143 133 140 135
221 201 191 203 209 212 222 224 239 244 248 233 222 251 204 200 191 113 37 24 15 7 2 355 357 356 192 191 187 185 178 170 166 162 164 164 169 167 160 151 138 126 119 120
210 204 199 208 210 212 229 214 225 237 245 257 225 248 226 184 203 89 43 33 27 23 25 29 34 44 58 78 104 122 133 142 149 154 158 161 157 140 130 129 128 123 110 107
214 201 212 217 212 211 214 204 216 235 239 238 231 234 224 141 78 48 54 48 39 37 41 46 52 58 62 70 81 93 103 108 120 131 137 138 130 129 133 137 133 124 112 108
203 199 206 214 202 197 208 210 208 208 213 228 194 222 133 84 73 70 70 63 53 48 49 50 52 55 58 63 71 80 88 88 91 95 97 104 114 123 132 135 131 123 114 107
197 197 196 205 210 196 205 218 231 228 217 195 178 213 107 99 94 90 85 75 63 54 52 51 50 52 57 60 66 73 77 78 78 80 81 83 90 96 97 99 104 104 103 102
204 198 188 204 214 218 205 219 239 263 264 244 179 132 123 125 112 102 92 82 70 61 56 54 51 52 55 58 61 68 74 74 72 75 77 76 77 81 87 93 97 101 107 112
245 217 185 190 205 218 233 217 219 236 236 232 202 194 168 156 134 116 101 89 79 69 61 56 53 53 55 59 63 67 70 73 73 74 75 80 82 86 93 95 95 98 101 102
251 238 181 183 204 197 203 212 222 233 249 248 229 170 95 141 136 122 106 96 86 77 68 62 59 59 61 63 64 67 70 73 74 75 77 79 81 84 88 89 91 92 92 95
243 254 212 188 188 228 209 214 217 231 228 245 266 105 104 124 126 121 112 102 92 85 79 74 71 68 66 65 66 67 69 72 75 79 81 81 84 85 85 86 86 90 92 94
272 236 214 182 182 192 206 217 230 241 255 244 250 130 129 129 120 115 111 105 99 93 85 78 71 68 67 68 69 71 72 74 78 82 83 82 82 83 84 85 86 88 89 87
282 258 270 253 161 169 182 191 220 236 243 239 244 130 147 140 127 119 115 110 103 94 87 82 78 75 74 72 72 73 73 76 80 81 81 79 77 78 79 77 75 76 80 82
313 226 96 62 72 108 114 122 219 247 289 280 156 142 147 138 128 122 118 112 105 98 92 88 85 83 82 81 79 77 77 77 82 85 83 81 78 76 73 71 70 71 75 81
358 256 160 134 117 125 94 50 36 14 333 337 123 100 101 109 113 115 115 111 105 101 96 92 89 87 86 87 88 87 84 83 85 85 82 81 80 78 75 73 76 76 72 66
346 294 246 195 173 215 159 33 17 47 32 24 95 109 116 102 91 92 98 100 98 96 95 94 91 88 90 92 93 92 91 90 88 88 89 90 90 87 86 85 78 71 63 51
319 306 266 242 224 238 79 68 64 77 53 44 82 101 99 94 83 71 76 90 92 93 94 95 97 97 95 96 96 96 96 97 97 97 95 95 96 92 83 76 70 59 46 32
325 295 273 260 243 167 128 107 9 36 82 73 102 108 112 116 101 72 66 80 89 93 95 97 100 101 100 101 104 104 105 106 105 101 97 92 89 86 79 71 62 46 32 22
112 272 267 258 263 254 86 61 349 265 123 106 117 125 136 162 142 102 95 94 96 98 100 103 103 102 101 104 111 110 108 106 100 94 90 87 80 71 66 61 48 43 26 16
280 260 265 265 258 82 50 348 277 273 84 110 116 121 118 64 80 110 110 103 104 106 107 109 107 104 106 114 114 109 105 97 94 94 91 85 77 72 65 61 45 26 14 13
323 309 300 291 269 78 19 353 30 59 86 102 103 98 96 101 107 113 114 115 115 113 110 110 109 108 112 115 113 106 98 96 95 95 92 86 68 49 61 48 27 6 352 345
340 360 352 11 40 69 50 64 73 80 95 95 103 112 119 121 121 120 119 117 116 115 114 116 115 112 108 102 93 93 94 93 92 92 84 81 84 64 22 353 352 341 347 348
130 335 291 124 111 107 95 92 82 74 84 93 107 121 127 126 127 126 123 121 121 120 119 120 117 108 99 92 83 79 82 83 83 82 77 70 42 48 45 332 353 0 3 0
329 258 267 215 125 140 134 105 95 93 98 105 110 118 126 129 130 129 126 127 125 119 116 111 101 98 98 94 86 82 82 83 79 74 52 356 5 16 343 8 28 5 38 25
251 275 288 360 90 134 114 118 117 118 113 116 118 119 125 129 129 128 127 128 126 122 116 109 104 101 99 97 89 79 69 44 360 346 347 344 350 359 341 1 116 127 55 126